This is the latest recevied weather packets stored in our database for station/object EA1BQO-1. If no packets are shown the sender has not sent any weather packets the latest 10 day(s).
| Time | Temp. | Humidity | Pressure | Rain* | Wind** | Luminosity | Snow |
|---|---|---|---|---|---|---|---|
| 1777889032 | 13.89° C | 63% | 1010.8 hPa | 0 mm | - | - | - |
| 1777888432 | 13.89° C | 67% | 1010.6 hPa | 0 mm | - | - | - |
| 1777887832 | 13.33° C | 71% | 1010.6 hPa | 0 mm | - | - | - |
| 1777887232 | 13.33° C | 72% | 1010.8 hPa | 0 mm | - | - | - |
| 1777886632 | 13.33° C | 74% | 1010.7 hPa | 0 mm | - | - | - |
| 1777886032 | 12.78° C | 74% | 1010.7 hPa | 0 mm | - | - | - |
| 1777885432 | 12.22° C | 79% | 1010.7 hPa | 0 mm | - | - | - |
| 1777884832 | 12.22° C | 82% | 1010.7 hPa | 0 mm | - | - | - |
| 1777884232 | 11.67° C | 82% | 1010.7 hPa | 0 mm | - | - | - |
| 1777883632 | 12.22° C | 86% | 1010.6 hPa | 0 mm | - | - | - |
| 1777883031 | 11.67° C | 88% | 1010.6 hPa | 0 mm | - | - | - |
| 1777882431 | 11.11° C | 93% | 1010.6 hPa | 0 mm | - | - | - |
| 1777881832 | 10.56° C | 98% | 1010.7 hPa | 0 mm | - | - | - |
| 1777881231 | 10.56° C | 99% | 1010.7 hPa | 0 mm | - | - | - |
| 1777880631 | 10° C | 99% | 1010.6 hPa | 0 mm | - | - | - |
| 1777880031 | 10° C | 99% | 1010.6 hPa | 0 mm | - | - | - |
| 1777879431 | 9.44° C | 99% | 1010.6 hPa | 0 mm | - | - | - |
| 1777878831 | 9.44° C | 99% | 1010.5 hPa | 0 mm | - | - | - |
| 1777878231 | 8.89° C | 99% | 1010.4 hPa | 0 mm | - | - | - |
| 1777877631 | 8.33° C | 99% | 1010.4 hPa | 0 mm | - | - | - |
| 1777877031 | 8.33° C | 99% | 1010.2 hPa | 0 mm | - | - | - |
| 1777876431 | 7.78° C | 99% | 1010.1 hPa | 0 mm | - | - | - |
| 1777875831 | 7.78° C | 99% | 1010 hPa | 0 mm | - | - | - |
| 1777875231 | 7.22° C | 99% | 1010 hPa | 0 mm | - | - | - |
| 1777874631 | 7.22° C | 99% | 1009.9 hPa | 0 mm | - | - | - |
* Rain latest hour (hover to see other rain measurements)
** Current wind speed in m/s (hover to see current wind gust speed)